| time (UTC) | temp F | wind direction | speed MPH | gust MPH | rain 1hr in | rain 24hr in | rain mn in | humidity % | barometer mb |
| 20260510174505 | 84 | 11 | 1.0 | 8.0 | 0.00 | 0.00 | 0.00 | 41 | 1013.4 |
| 20260510174006 | 84 | 229 | 2.0 | 8.0 | 0.00 | 0.00 | 0.00 | 40 | 1013.5 |
| 20260510173505 | 84 | 240 | 2.0 | 6.0 | 0.00 | 0.00 | 0.00 | 40 | 1013.5 |
| 20260510173005 | 83 | 241 | 1.0 | 9.0 | 0.00 | 0.00 | 0.00 | 39 | 1013.5 |
| 20260510172505 | 83 | 222 | 2.0 | 9.0 | 0.00 | 0.00 | 0.00 | 40 | 1013.6 |
| 20260510172005 | 83 | 228 | 2.0 | 6.0 | 0.00 | 0.00 | 0.00 | 39 | 1013.5 |
| 20260510171505 | 83 | 232 | 3.0 | 7.0 | 0.00 | 0.00 | 0.00 | 41 | 1013.6 |
| 20260510171005 | 83 | 213 | 1.0 | 8.0 | 0.00 | 0.00 | 0.00 | 42 | 1013.6 |
| 20260510170505 | 83 | 161 | 4.0 | 8.0 | 0.00 | 0.00 | 0.00 | 43 | 1013.7 |
| 20260510170005 | 83 | 160 | 3.0 | 7.0 | 0.00 | 0.00 | 0.00 | 43 | 1013.8 |
| 20260510165505 | 83 | 5 | 2.0 | 9.0 | 0.00 | 0.00 | 0.00 | 43 | 1013.9 |
| 20260510165005 | 82 | 15 | 2.0 | 9.0 | 0.00 | 0.00 | 0.00 | 44 | 1013.9 |
| 20260510164504 | 82 | 294 | 1.0 | 5.0 | 0.00 | 0.00 | 0.00 | 43 | 1014.0 |
| 20260510164006 | 81 | 355 | 1.0 | 6.0 | 0.00 | 0.00 | 0.00 | 44 | 1014.0 |
| 20260510163505 | 81 | 221 | 2.0 | 6.0 | 0.00 | 0.00 | 0.00 | 43 | 1014.0 |
| 20260510163005 | 81 | 132 | 2.0 | 5.0 | 0.00 | 0.00 | 0.00 | 43 | 1014.0 |
| 20260510162505 | 80 | 226 | 1.0 | 5.0 | 0.00 | 0.00 | 0.00 | 46 | 1013.9 |
| 20260510162005 | 80 | 41 | 2.0 | 3.0 | 0.00 | 0.00 | 0.00 | 47 | 1014.0 |
| 20260510161505 | 80 | 114 | 1.0 | 7.0 | 0.00 | 0.00 | 0.00 | 48 | 1014.0 |
| 20260510161004 | 79 | 139 | 2.0 | 7.0 | 0.00 | 0.00 | 0.00 | 47 | 1014.1 |
| 20260510160504 | 79 | 323 | 0.0 | 6.0 | 0.00 | 0.00 | 0.00 | 49 | 1014.1 |
| 20260510160005 | 79 | 244 | 0.0 | 6.0 | 0.00 | 0.00 | 0.00 | 50 | 1014.2 |
| 20260510155505 | 78 | 218 | 1.0 | 6.0 | 0.00 | 0.00 | 0.00 | 49 | 1014.2 |
| 20260510155004 | 78 | 211 | 2.0 | 6.0 | 0.00 | 0.00 | 0.00 | 49 | 1014.3 |
| 20260510154505 | 77 | 239 | 1.0 | 5.0 | 0.00 | 0.00 | 0.00 | 51 | 1014.3 |
| 20260510154005 | 77 | 37 | 0.0 | 3.0 | 0.00 | 0.00 | 0.00 | 51 | 1014.3 |
| 20260510153506 | 77 | 41 | 1.0 | 3.0 | 0.00 | 0.00 | 0.00 | 52 | 1014.4 |
| 20260510153006 | 76 | 134 | 3.0 | 5.0 | 0.00 | 0.00 | 0.00 | 53 | 1014.4 |
| 20260510152505 | 76 | 240 | 0.0 | 6.0 | 0.00 | 0.00 | 0.00 | 54 | 1014.4 |
| 20260510152005 | 76 | 226 | 4.0 | 6.0 | 0.00 | 0.00 | 0.00 | 53 | 1014.4 |
| 20260510151505 | 76 | 233 | 3.0 | 3.0 | 0.00 | 0.00 | 0.00 | 53 | 1014.5 |
| 20260510151005 | 76 | 227 | 1.0 | 3.0 | 0.00 | 0.00 | 0.00 | 55 | 1014.6 |
| 20260510150505 | 75 | 0 | 1.0 | 5.0 | 0.00 | 0.00 | 0.00 | 55 | 1014.5 |
| 20260510150005 | 75 | 232 | 1.0 | 5.0 | 0.00 | 0.00 | 0.00 | 55 | 1014.5 |
| 20260510145504 | 75 | 227 | 3.0 | 5.0 | 0.00 | 0.00 | 0.00 | 56 | 1014.6 |
| 20260510145005 | 74 | 152 | 1.0 | 5.0 | 0.00 | 0.00 | 0.00 | 58 | 1014.6 |
| 20260510144504 | 74 | 224 | 3.0 | 7.0 | 0.00 | 0.00 | 0.00 | 57 | 1014.5 |
| 20260510144004 | 74 | 205 | 2.0 | 7.0 | 0.00 | 0.00 | 0.00 | 57 | 1014.6 |
| 20260510143505 | 74 | 15 | 3.0 | 6.0 | 0.00 | 0.00 | 0.00 | 59 | 1014.5 |
| 20260510143005 | 73 | 12 | 1.0 | 5.0 | 0.00 | 0.00 | 0.00 | 59 | 1014.5 |
| 20260510142505 | 73 | 225 | 1.0 | 5.0 | 0.00 | 0.00 | 0.00 | 59 | 1014.4 |
| 20260510142005 | 73 | 224 | 2.0 | 5.0 | 0.00 | 0.00 | 0.00 | 59 | 1014.4 |
| 20260510141505 | 73 | 228 | 0.0 | 3.0 | 0.00 | 0.00 | 0.00 | 60 | 1014.4 |
| 20260510141005 | 72 | 227 | 1.0 | 3.0 | 0.00 | 0.00 | 0.00 | 61 | 1014.4 |
| 20260510140505 | 72 | 229 | 1.0 | 5.0 | 0.00 | 0.00 | 0.00 | 61 | 1014.4 |
| 20260510140004 | 72 | 22 | 2.0 | 5.0 | 0.00 | 0.00 | 0.00 | 62 | 1014.4 |
| 20260510135504 | 71 | 355 | 1.0 | 3.0 | 0.00 | 0.00 | 0.00 | 63 | 1014.4 |
| 20260510135005 | 70 | 355 | 1.0 | 3.0 | 0.00 | 0.00 | 0.00 | 63 | 1014.3 |
| 20260510134505 | 70 | 14 | 2.0 | 3.0 | 0.00 | 0.00 | 0.00 | 68 | 1014.3 |
| 20260510134006 | 69 | 355 | 1.0 | 3.0 | 0.00 | 0.00 | 0.00 | 69 | 1014.3 |
| 20260510133505 | 69 | 343 | 2.0 | 3.0 | 0.00 | 0.00 | 0.00 | 72 | 1014.3 |
| 20260510133004 | 68 | 204 | 2.0 | 3.0 | 0.00 | 0.00 | 0.00 | 72 | 1014.3 |
| 20260510132504 | 68 | 204 | 1.0 | 3.0 | 0.00 | 0.00 | 0.00 | 75 | 1014.3 |
| 20260510132005 | 67 | 355 | 1.0 | 3.0 | 0.00 | 0.00 | 0.00 | 76 | 1014.4 |
| 20260510131504 | 67 | 355 | 0.0 | 3.0 | 0.00 | 0.00 | 0.00 | 78 | 1014.4 |
| 20260510131005 | 66 | 355 | 1.0 | 3.0 | 0.00 | 0.00 | 0.00 | 79 | 1014.5 |
| 20260510130505 | 65 | 5 | 0.0 | 3.0 | 0.00 | 0.00 | 0.00 | 81 | 1014.4 |
| 20260510130004 | 65 | 5 | 1.0 | 3.0 | 0.00 | 0.00 | 0.00 | 82 | 1014.3 |
| 20260510125504 | 64 | 225 | 2.0 | 5.0 | 0.00 | 0.00 | 0.00 | 83 | 1014.2 |
| 20260510124505 | 63 | 194 | 0.0 | 0.0 | 0.00 | 0.00 | 0.00 | 86 | 1014.1 |
| 20260510124005 | 62 | 194 | 0.0 | 0.0 | 0.00 | 0.00 | 0.00 | 88 | 1014.1 |
| 20260510123505 | 61 | 279 | 0.0 | 2.0 | 0.00 | 0.00 | 0.00 | 89 | 1014.1 |
| 20260510123005 | 61 | 279 | 1.0 | 3.0 | 0.00 | 0.00 | 0.00 | 90 | 1014.1 |
| 20260510122005 | 60 | 255 | 1.0 | 3.0 | 0.00 | 0.00 | 0.00 | 92 | 1014.1 |
| 20260510121504 | 60 | 248 | 1.0 | 3.0 | 0.00 | 0.00 | 0.00 | 93 | 1013.9 |
| 20260510121005 | 60 | 248 | 2.0 | 3.0 | 0.00 | 0.00 | 0.00 | 93 | 1013.8 |
| 20260510120505 | 59 | 255 | 0.0 | 0.0 | 0.00 | 0.00 | 0.00 | 93 | 1013.7 |
| 20260510120005 | 59 | 255 | 0.0 | 0.0 | 0.00 | 0.00 | 0.00 | 93 | 1013.6 |
| 20260510115505 | 59 | 255 | 0.0 | 0.0 | 0.00 | 0.00 | 0.00 | 94 | 1013.5 |
| 20260510115005 | 58 | 255 | 0.0 | 0.0 | 0.00 | 0.00 | 0.00 | 93 | 1013.5 |
| 20260510114505 | 58 | 217 | 0.0 | 0.0 | 0.00 | 0.00 | 0.00 | 93 | 1013.5 |
| 20260510114005 | 57 | 217 | 0.0 | 0.0 | 0.00 | 0.00 | 0.00 | 93 | 1013.4 |
| 20260510113004 | 56 | 217 | 0.0 | 0.0 | 0.00 | 0.00 | 0.00 | 93 | 1013.2 |
| 20260510112504 | 56 | 217 | 0.0 | 0.0 | 0.00 | 0.00 | 0.00 | 93 | 1013.2 |
| 20260510111505 | 55 | 217 | 0.0 | 0.0 | 0.00 | 0.00 | 0.00 | 93 | 1013.2 |
| 20260510111005 | 55 | 217 | 0.0 | 0.0 | 0.00 | 0.00 | 0.00 | 93 | 1013.0 |
| 20260510110505 | 55 | 217 | 0.0 | 0.0 | 0.00 | 0.00 | 0.00 | 93 | 1013.0 |
| 20260510110005 | 55 | 217 | 0.0 | 0.0 | 0.00 | 0.00 | 0.00 | 93 | 1013.0 |
| 20260510105504 | 55 | 217 | 0.0 | 0.0 | 0.00 | 0.00 | 0.00 | 93 | 1013.0 |
| 20260510105005 | 55 | 217 | 0.0 | 0.0 | 0.00 | 0.00 | 0.00 | 92 | 1012.9 |
| 20260510104504 | 55 | 217 | 0.0 | 0.0 | 0.00 | 0.00 | 0.00 | 92 | 1012.8 |
| 20260510104005 | 55 | 217 | 0.0 | 0.0 | 0.00 | 0.00 | 0.00 | 92 | 1012.7 |
| 20260510103505 | 55 | 217 | 0.0 | 0.0 | 0.00 | 0.00 | 0.00 | 92 | 1012.7 |
| 20260510103004 | 55 | 217 | 0.0 | 0.0 | 0.00 | 0.00 | 0.00 | 92 | 1012.6 |
| 20260510102504 | 55 | 217 | 0.0 | 0.0 | 0.00 | 0.00 | 0.00 | 92 | 1012.5 |
| 20260510101505 | 55 | 217 | 0.0 | 0.0 | 0.00 | 0.00 | 0.00 | 92 | 1012.4 |
| 20260510101005 | 55 | 217 | 0.0 | 0.0 | 0.00 | 0.00 | 0.00 | 92 | 1012.3 |
| 20260510100505 | 55 | 217 | 0.0 | 0.0 | 0.00 | 0.00 | 0.00 | 92 | 1012.2 |
| 20260510100004 | 56 | 217 | 0.0 | 0.0 | 0.00 | 0.00 | 0.00 | 92 | 1012.1 |
| 20260510095005 | 56 | 217 | 0.0 | 0.0 | 0.00 | 0.00 | 0.00 | 92 | 1012.1 |
| 20260510094505 | 56 | 217 | 0.0 | 0.0 | 0.00 | 0.00 | 0.00 | 92 | 1012.1 |
| 20260510094005 | 56 | 217 | 0.0 | 0.0 | 0.00 | 0.00 | 0.00 | 92 | 1012.1 |
| 20260510093505 | 56 | 217 | 0.0 | 0.0 | 0.00 | 0.00 | 0.00 | 92 | 1012.0 |
| 20260510093005 | 56 | 217 | 0.0 | 0.0 | 0.00 | 0.00 | 0.00 | 91 | 1012.0 |
| 20260510092004 | 57 | 217 | 0.0 | 0.0 | 0.00 | 0.00 | 0.00 | 91 | 1011.9 |
| 20260510091504 | 57 | 217 | 0.0 | 0.0 | 0.00 | 0.00 | 0.00 | 91 | 1011.9 |
| 20260510091005 | 57 | 217 | 0.0 | 0.0 | 0.00 | 0.00 | 0.00 | 91 | 1011.9 |
| 20260510090504 | 57 | 217 | 0.0 | 0.0 | 0.00 | 0.00 | 0.00 | 91 | 1011.8 |
| 20260510085504 | 57 | 217 | 0.0 | 0.0 | 0.00 | 0.00 | 0.00 | 91 | 1011.6 |
| 20260510085005 | 57 | 217 | 0.0 | 0.0 | 0.00 | 0.00 | 0.00 | 91 | 1011.5 |
| 20260510084005 | 58 | 217 | 0.0 | 0.0 | 0.00 | 0.00 | 0.00 | 90 | 1011.4 |
| 20260510083504 | 58 | 217 | 0.0 | 0.0 | 0.00 | 0.00 | 0.00 | 90 | 1011.4 |
| 20260510083004 | 58 | 217 | 0.0 | 0.0 | 0.00 | 0.00 | 0.00 | 90 | 1011.5 |
| 20260510082504 | 58 | 217 | 0.0 | 0.0 | 0.00 | 0.00 | 0.00 | 90 | 1011.5 |
| 20260510082006 | 58 | 217 | 0.0 | 0.0 | 0.00 | 0.00 | 0.00 | 90 | 1011.4 |
| 20260510081005 | 59 | 217 | 0.0 | 0.0 | 0.00 | 0.00 | 0.00 | 89 | 1011.3 |
| 20260510080504 | 59 | 217 | 0.0 | 0.0 | 0.00 | 0.00 | 0.00 | 89 | 1011.3 |
| 20260510080004 | 60 | 217 | 0.0 | 0.0 | 0.00 | 0.00 | 0.00 | 89 | 1011.3 |
| 20260510075504 | 60 | 217 | 0.0 | 0.0 | 0.00 | 0.00 | 0.00 | 89 | 1011.3 |
| 20260510075005 | 60 | 217 | 0.0 | 0.0 | 0.00 | 0.00 | 0.00 | 89 | 1011.2 |
| 20260510074504 | 60 | 217 | 0.0 | 0.0 | 0.00 | 0.00 | 0.00 | 88 | 1011.2 |
| 20260510073504 | 61 | 217 | 0.0 | 0.0 | 0.00 | 0.00 | 0.00 | 88 | 1011.2 |
| 20260510073004 | 61 | 217 | 0.0 | 0.0 | 0.00 | 0.00 | 0.00 | 88 | 1011.2 |
| 20260510072504 | 61 | 217 | 0.0 | 0.0 | 0.00 | 0.00 | 0.00 | 88 | 1011.2 |
| 20260510072004 | 61 | 217 | 0.0 | 0.0 | 0.00 | 0.00 | 0.00 | 88 | 1011.1 |
| 20260510071505 | 62 | 217 | 0.0 | 0.0 | 0.00 | 0.00 | 0.00 | 87 | 1011.2 |
| 20260510071004 | 62 | 217 | 0.0 | 0.0 | 0.00 | 0.00 | 0.00 | 87 | 1011.1 |
| 20260510070504 | 62 | 217 | 0.0 | 0.0 | 0.00 | 0.00 | 0.00 | 87 | 1011.0 |
| 20260510070004 | 62 | 217 | 0.0 | 0.0 | 0.00 | 0.00 | 0.00 | 86 | 1011.0 |
| 20260510065504 | 63 | 217 | 0.0 | 0.0 | 0.00 | 0.00 | 0.00 | 86 | 1011.1 |
| 20260510065004 | 63 | 217 | 0.0 | 0.0 | 0.00 | 0.00 | 0.00 | 86 | 1011.1 |
| 20260510064005 | 64 | 217 | 0.0 | 0.0 | 0.00 | 0.00 | 0.00 | 85 | 1011.3 |
| 20260510063504 | 64 | 217 | 0.0 | 0.0 | 0.00 | 0.00 | 0.00 | 85 | 1011.3 |
| 20260510063004 | 64 | 217 | 0.0 | 1.0 | 0.00 | 0.00 | 0.00 | 85 | 1011.3 |
| 20260510062504 | 64 | 217 | 0.0 | 2.0 | 0.00 | 0.00 | 0.00 | 85 | 1011.2 |
| 20260510062004 | 64 | 217 | 0.0 | 3.0 | 0.00 | 0.00 | 0.00 | 85 | 1011.2 |
| 20260510061504 | 65 | 217 | 2.0 | 3.0 | 0.00 | 0.00 | 0.00 | 84 | 1011.1 |
| 20260510061004 | 65 | 216 | 1.0 | 3.0 | 0.00 | 0.00 | 0.00 | 84 | 1011.2 |
| 20260510060004 | 65 | 220 | 1.0 | 6.0 | 0.00 | 0.00 | 0.00 | 83 | 1011.1 |
| 20260510055505 | 65 | 221 | 2.0 | 6.0 | 0.00 | 0.00 | 0.00 | 83 | 1011.1 |
| 20260510055004 | 65 | 228 | 1.0 | 5.0 | 0.00 | 0.00 | 0.00 | 83 | 1011.1 |
| 20260510054504 | 66 | 215 | 1.0 | 3.0 | 0.00 | 0.00 | 0.00 | 83 | 1011.2 |
| 20260510054004 | 66 | 217 | 2.0 | 3.0 | 0.00 | 0.00 | 0.00 | 82 | 1011.2 |
| 20260510052505 | 66 | 230 | 2.0 | 7.0 | 0.00 | 0.00 | 0.00 | 81 | 1011.2 |
| 20260510051504 | 67 | 226 | 2.0 | 5.0 | 0.00 | 0.00 | 0.00 | 81 | 1011.2 |
| 20260510051005 | 67 | 218 | 2.0 | 5.0 | 0.00 | 0.00 | 0.00 | 81 | 1011.2 |
| 20260510050503 | 67 | 213 | 2.0 | 7.0 | 0.00 | 0.00 | 0.00 | 81 | 1011.2 |
| 20260510050004 | 67 | 228 | 3.0 | 7.0 | 0.00 | 0.00 | 0.00 | 81 | 1011.1 |
| 20260510045504 | 67 | 218 | 2.0 | 7.0 | 0.00 | 0.00 | 0.00 | 80 | 1011.1 |
| 20260510045004 | 67 | 217 | 2.0 | 7.0 | 0.00 | 0.00 | 0.00 | 80 | 1011.1 |
| 20260510044504 | 67 | 233 | 2.0 | 6.0 | 0.00 | 0.00 | 0.00 | 80 | 1011.2 |
| 20260510044004 | 67 | 217 | 2.0 | 6.0 | 0.00 | 0.00 | 0.00 | 80 | 1011.3 |
| 20260510043505 | 67 | 212 | 3.0 | 7.0 | 0.00 | 0.00 | 0.00 | 80 | 1011.1 |
| 20260510043004 | 67 | 211 | 2.0 | 7.0 | 0.00 | 0.00 | 0.00 | 79 | 1011.1 |
| 20260510042004 | 67 | 215 | 2.0 | 8.0 | 0.00 | 0.00 | 0.00 | 79 | 1011.1 |
| 20260510041504 | 67 | 212 | 3.0 | 8.0 | 0.00 | 0.00 | 0.00 | 79 | 1011.1 |
| 20260510041005 | 67 | 231 | 4.0 | 8.0 | 0.00 | 0.00 | 0.00 | 79 | 1011.1 |
| 20260510040005 | 67 | 223 | 3.0 | 5.0 | 0.00 | 0.00 | 0.00 | 78 | 1011.0 |
| 20260510035504 | 67 | 222 | 3.0 | 5.0 | 0.00 | 0.00 | 0.00 | 77 | 1011.0 |
| 20260510035004 | 67 | 224 | 3.0 | 3.0 | 0.00 | 0.00 | 0.00 | 77 | 1010.9 |
| 20260510034503 | 67 | 191 | 2.0 | 3.0 | 0.00 | 0.00 | 0.00 | 77 | 1011.0 |
| 20260510034004 | 67 | 229 | 2.0 | 5.0 | 0.00 | 0.00 | 0.00 | 76 | 1010.9 |
| 20260510033504 | 67 | 217 | 2.0 | 5.0 | 0.00 | 0.00 | 0.00 | 76 | 1010.9 |
| 20260510033004 | 67 | 210 | 2.0 | 3.0 | 0.00 | 0.00 | 0.00 | 76 | 1010.9 |
| 20260510032504 | 67 | 217 | 2.0 | 3.0 | 0.00 | 0.00 | 0.00 | 76 | 1010.9 |
| 20260510031504 | 67 | 225 | 3.0 | 5.0 | 0.00 | 0.00 | 0.00 | 75 | 1010.8 |
| 20260510031004 | 68 | 222 | 1.0 | 3.0 | 0.00 | 0.00 | 0.00 | 75 | 1010.8 |
| 20260510030004 | 68 | 223 | 2.0 | 3.0 | 0.00 | 0.00 | 0.00 | 74 | 1010.7 |
| 20260510025504 | 68 | 224 | 2.0 | 3.0 | 0.00 | 0.00 | 0.00 | 74 | 1010.7 |
| 20260510025005 | 68 | 216 | 2.0 | 5.0 | 0.00 | 0.00 | 0.00 | 74 | 1010.6 |
| 20260510024504 | 68 | 215 | 2.0 | 5.0 | 0.00 | 0.00 | 0.00 | 74 | 1010.6 |
| 20260510024005 | 68 | 211 | 2.0 | 3.0 | 0.00 | 0.00 | 0.00 | 74 | 1010.6 |
| 20260510023503 | 67 | 221 | 2.0 | 3.0 | 0.00 | 0.00 | 0.00 | 74 | 1010.5 |
| 20260510023003 | 67 | 215 | 2.0 | 3.0 | 0.00 | 0.00 | 0.00 | 74 | 1010.5 |
| 20260510022504 | 67 | 216 | 2.0 | 3.0 | 0.00 | 0.00 | 0.00 | 75 | 1010.5 |
| 20260510022004 | 67 | 211 | 1.0 | 3.0 | 0.00 | 0.00 | 0.00 | 75 | 1010.4 |
| 20260510021503 | 67 | 209 | 1.0 | 3.0 | 0.00 | 0.00 | 0.00 | 75 | 1010.3 |
| 20260510021006 | 67 | 209 | 2.0 | 3.0 | 0.00 | 0.00 | 0.00 | 75 | 1010.2 |
| 20260510020505 | 66 | 211 | 0.0 | 0.0 | 0.00 | 0.00 | 0.00 | 75 | 1010.3 |
| 20260510020006 | 66 | 211 | 0.0 | 0.0 | 0.00 | 0.00 | 0.00 | 75 | 1010.2 |
| 20260510015505 | 66 | 211 | 0.0 | 0.0 | 0.00 | 0.00 | 0.00 | 74 | 1010.0 |
| 20260510015006 | 67 | 211 | 0.0 | 0.0 | 0.00 | 0.00 | 0.00 | 74 | 1010.0 |
| 20260510014505 | 67 | 211 | 0.0 | 0.0 | 0.00 | 0.00 | 0.00 | 73 | 1009.9 |
| 20260510014005 | 67 | 211 | 0.0 | 0.0 | 0.00 | 0.00 | 0.00 | 73 | 1009.8 |
| 20260510013505 | 67 | 211 | 0.0 | 0.0 | 0.00 | 0.00 | 0.00 | 73 | 1009.8 |
| 20260510013005 | 67 | 211 | 0.0 | 0.0 | 0.00 | 0.00 | 0.00 | 73 | 1009.9 |
| 20260510012505 | 67 | 211 | 0.0 | 0.0 | 0.00 | 0.00 | 0.00 | 72 | 1009.8 |
| 20260510012005 | 67 | 211 | 0.0 | 0.0 | 0.00 | 0.00 | 0.00 | 72 | 1009.6 |
| 20260510011505 | 67 | 211 | 0.0 | 0.0 | 0.00 | 0.00 | 0.00 | 71 | 1009.6 |
| 20260510011006 | 68 | 211 | 0.0 | 0.0 | 0.00 | 0.00 | 0.00 | 71 | 1009.5 |
| 20260510010505 | 68 | 211 | 0.0 | 0.0 | 0.00 | 0.00 | 0.00 | 71 | 1009.5 |
| 20260510010006 | 68 | 211 | 0.0 | 0.0 | 0.00 | 0.00 | 0.00 | 70 | 1009.6 |
| 20260510005505 | 69 | 211 | 0.0 | 0.0 | 0.00 | 0.00 | 0.00 | 69 | 1009.5 |
| 20260510005005 | 69 | 211 | 0.0 | 0.0 | 0.00 | 0.00 | 0.00 | 69 | 1009.4 |
| 20260510004505 | 69 | 211 | 0.0 | 0.0 | 0.00 | 0.00 | 0.00 | 68 | 1009.3 |
| 20260510004006 | 70 | 211 | 0.0 | 0.0 | 0.00 | 0.00 | 0.00 | 67 | 1009.2 |
| 20260510003506 | 70 | 211 | 0.0 | 0.0 | 0.00 | 0.00 | 0.00 | 67 | 1009.2 |
| 20260510003006 | 70 | 211 | 0.0 | 0.0 | 0.00 | 0.00 | 0.00 | 66 | 1009.2 |
| 20260510002506 | 71 | 211 | 0.0 | 0.0 | 0.00 | 0.00 | 0.00 | 65 | 1009.1 |
| 20260510002006 | 71 | 211 | 0.0 | 0.0 | 0.00 | 0.00 | 0.00 | 64 | 1009.0 |
| 20260510001505 | 72 | 211 | 0.0 | 0.0 | 0.00 | 0.00 | 0.00 | 64 | 1009.1 |
| 20260510001006 | 72 | 211 | 0.0 | 0.0 | 0.00 | 0.00 | 0.00 | 63 | 1009.0 |
| 20260510000506 | 73 | 211 | 0.0 | 0.0 | 0.00 | 0.00 | 0.00 | 62 | 1008.9 |
| 20260510000006 | 73 | 211 | 0.0 | 0.0 | 0.00 | 0.00 | 0.00 | 61 | 1008.8 |
| 20260509235506 | 73 | 211 | 0.0 | 0.0 | 0.00 | 0.00 | 0.00 | 61 | 1008.8 |
| 20260509234506 | 74 | 211 | 0.0 | 2.0 | 0.00 | 0.00 | 0.00 | 59 | 1008.7 |
| 20260509234006 | 74 | 211 | 0.0 | 3.0 | 0.00 | 0.00 | 0.00 | 58 | 1008.6 |
| 20260509233505 | 74 | 211 | 1.0 | 3.0 | 0.00 | 0.00 | 0.00 | 58 | 1008.7 |
| 20260509232505 | 75 | 213 | 0.0 | 3.0 | 0.00 | 0.00 | 0.00 | 57 | 1008.8 |
| 20260509232005 | 75 | 213 | 0.0 | 3.0 | 0.00 | 0.00 | 0.00 | 57 | 1008.7 |
| 20260509231505 | 75 | 213 | 1.0 | 3.0 | 0.00 | 0.00 | 0.00 | 57 | 1008.7 |
| 20260509231005 | 75 | 213 | 0.0 | 3.0 | 0.00 | 0.00 | 0.00 | 56 | 1008.8 |
| 20260509230005 | 75 | 215 | 1.0 | 3.0 | 0.00 | 0.00 | 0.00 | 56 | 1008.7 |
| 20260509225506 | 75 | 215 | 0.0 | 3.0 | 0.00 | 0.00 | 0.00 | 56 | 1008.7 |
| 20260509225005 | 76 | 217 | 2.0 | 3.0 | 0.00 | 0.00 | 0.00 | 55 | 1008.6 |
| 20260509224505 | 76 | 217 | 2.0 | 5.0 | 0.00 | 0.00 | 0.00 | 55 | 1008.6 |
| 20260509223505 | 76 | 225 | 3.0 | 8.0 | 0.00 | 0.00 | 0.00 | 54 | 1008.6 |
| 20260509223005 | 76 | 235 | 4.0 | 8.0 | 0.00 | 0.00 | 0.00 | 53 | 1008.6 |
| 20260509222505 | 77 | 220 | 3.0 | 8.0 | 0.00 | 0.00 | 0.00 | 54 | 1008.6 |
| 20260509222006 | 77 | 220 | 2.0 | 5.0 | 0.00 | 0.00 | 0.00 | 54 | 1008.7 |
| 20260509221505 | 77 | 199 | 1.0 | 3.0 | 0.00 | 0.00 | 0.00 | 55 | 1008.7 |
| 20260509221005 | 77 | 232 | 2.0 | 3.0 | 0.00 | 0.00 | 0.00 | 55 | 1008.6 |
| 20260509220505 | 77 | 242 | 1.0 | 5.0 | 0.00 | 0.00 | 0.00 | 56 | 1008.6 |
| 20260509220005 | 77 | 222 | 3.0 | 5.0 | 0.00 | 0.00 | 0.00 | 54 | 1008.6 |
| 20260509215505 | 77 | 234 | 2.0 | 5.0 | 0.00 | 0.00 | 0.00 | 55 | 1008.6 |
| 20260509215007 | 77 | 224 | 3.0 | 7.0 | 0.00 | 0.00 | 0.00 | 54 | 1008.5 |
| 20260509214505 | 76 | 216 | 1.0 | 7.0 | 0.00 | 0.00 | 0.00 | 56 | 1008.4 |
| 20260509214005 | 76 | 233 | 3.0 | 6.0 | 0.00 | 0.00 | 0.00 | 57 | 1008.5 |
| 20260509213505 | 76 | 237 | 3.0 | 8.0 | 0.00 | 0.00 | 0.00 | 56 | 1008.5 |
| 20260509213005 | 76 | 221 | 2.0 | 9.0 | 0.00 | 0.00 | 0.00 | 55 | 1008.5 |
| 20260509212505 | 77 | 224 | 5.0 | 9.0 | 0.00 | 0.00 | 0.00 | 54 | 1008.5 |
| 20260509212006 | 77 | 226 | 3.0 | 7.0 | 0.00 | 0.00 | 0.00 | 55 | 1008.4 |
| 20260509211506 | 77 | 227 | 5.0 | 7.0 | 0.00 | 0.00 | 0.00 | 54 | 1008.4 |
| 20260509211005 | 77 | 218 | 3.0 | 9.0 | 0.00 | 0.00 | 0.00 | 54 | 1008.4 |
| 20260509210505 | 77 | 233 | 2.0 | 9.0 | 0.00 | 0.00 | 0.00 | 53 | 1008.5 |
| 20260509210005 | 77 | 212 | 3.0 | 9.0 | 0.00 | 0.00 | 0.00 | 53 | 1008.4 |
| 20260509205505 | 78 | 216 | 3.0 | 9.0 | 0.00 | 0.00 | 0.00 | 51 | 1008.5 |
| 20260509205005 | 78 | 225 | 5.0 | 9.0 | 0.00 | 0.00 | 0.00 | 53 | 1008.4 |
| 20260509204505 | 78 | 235 | 5.0 | 10.0 | 0.00 | 0.00 | 0.00 | 54 | 1008.3 |
| 20260509204005 | 78 | 225 | 5.0 | 10.0 | 0.00 | 0.00 | 0.00 | 53 | 1008.3 |
| 20260509203505 | 78 | 213 | 5.0 | 8.0 | 0.00 | 0.00 | 0.00 | 53 | 1008.3 |
| 20260509203005 | 78 | 233 | 3.0 | 8.0 | 0.00 | 0.00 | 0.00 | 54 | 1008.2 |
| 20260509202505 | 78 | 226 | 6.0 | 8.0 | 0.00 | 0.00 | 0.00 | 54 | 1008.2 |
| 20260509202005 | 78 | 223 | 4.0 | 9.0 | 0.00 | 0.00 | 0.00 | 53 | 1008.2 |
| 20260509201505 | 78 | 234 | 5.0 | 9.0 | 0.00 | 0.00 | 0.00 | 53 | 1008.3 |
| 20260509201005 | 78 | 224 | 5.0 | 9.0 | 0.00 | 0.00 | 0.00 | 53 | 1008.4 |
| 20260509200005 | 78 | 229 | 5.0 | 9.0 | 0.00 | 0.00 | 0.00 | 53 | 1008.5 |
| 20260509195505 | 77 | 228 | 5.0 | 10.0 | 0.00 | 0.00 | 0.00 | 53 | 1008.6 |
| 20260509195005 | 77 | 230 | 5.0 | 10.0 | 0.00 | 0.00 | 0.00 | 52 | 1008.6 |
| 20260509194505 | 78 | 222 | 5.0 | 9.0 | 0.00 | 0.00 | 0.00 | 52 | 1008.6 |
| 20260509194005 | 77 | 212 | 2.0 | 6.0 | 0.00 | 0.00 | 0.00 | 55 | 1008.8 |
| 20260509193505 | 75 | 229 | 2.0 | 8.0 | 0.00 | 0.00 | 0.00 | 57 | 1008.9 |
| 20260509193005 | 74 | 232 | 3.0 | 8.0 | 0.00 | 0.00 | 0.00 | 56 | 1009.0 |
| 20260509192505 | 75 | 222 | 3.0 | 7.0 | 0.00 | 0.00 | 0.00 | 55 | 1009.1 |
| 20260509192005 | 76 | 221 | 3.0 | 7.0 | 0.00 | 0.00 | 0.00 | 54 | 1009.0 |
| 20260509191505 | 77 | 193 | 3.0 | 5.0 | 0.00 | 0.00 | 0.00 | 53 | 1009.1 |
| 20260509190505 | 78 | 217 | 2.0 | 12.0 | 0.00 | 0.00 | 0.00 | 53 | 1009.2 |
| 20260509190006 | 76 | 217 | 2.0 | 10.0 | 0.00 | 0.00 | 0.00 | 54 | 1009.3 |
| 20260509185505 | 75 | 219 | 3.0 | 10.0 | 0.00 | 0.00 | 0.00 | 55 | 1009.4 |
| 20260509185006 | 75 | 220 | 3.0 | 12.0 | 0.00 | 0.00 | 0.00 | 55 | 1009.4 |
| 20260509184505 | 76 | 222 | 3.0 | 12.0 | 0.00 | 0.00 | 0.00 | 53 | 1009.6 |
| 20260509184006 | 77 | 234 | 6.0 | 12.0 | 0.00 | 0.00 | 0.00 | 52 | 1009.6 |
| 20260509183505 | 78 | 222 | 5.0 | 12.0 | 0.00 | 0.00 | 0.00 | 51 | 1009.6 |
| 20260509182505 | 76 | 229 | 3.0 | 7.0 | 0.00 | 0.00 | 0.00 | 56 | 1009.7 |
| 20260509182006 | 74 | 224 | 4.0 | 10.0 | 0.00 | 0.00 | 0.00 | 57 | 1009.8 |
| 20260509181505 | 74 | 240 | 2.0 | 10.0 | 0.00 | 0.00 | 0.00 | 57 | 1009.9 |
| 20260509181005 | 74 | 228 | 4.0 | 8.0 | 0.00 | 0.00 | 0.00 | 56 | 1010.0 |
| 20260509180504 | 75 | 207 | 2.0 | 8.0 | 0.00 | 0.00 | 0.00 | 58 | 1010.0 |
| 20260509180006 | 74 | 128 | 2.0 | 9.0 | 0.00 | 0.00 | 0.00 | 58 | 1010.0 |
| 20260509175505 | 74 | 224 | 3.0 | 12.0 | 0.00 | 0.00 | 0.00 | 56 | 1010.1 |
| 20260509175006 | 75 | 225 | 7.0 | 12.0 | 0.00 | 0.00 | 0.00 | 53 | 1010.2 |